Location: Amsterdam
(30.7274°N, 84.4357°W)
Time: 03:08:15
(UTC+00:00)

Transit 2A Rocket - Pass Details

Date: 25 February 2026
Orbit: 583 x 900 km, 66.7° (Epoch: 5 March)

Event Time Altitude Azimuth Distance (km) Brightness Sun altitude
Rises 18:19:03 0° 178° (S) 3,426 9.0 49.8°
Reaches altitude 10° 18:21:45 10° 168° (SSE) 2,522 8.5 49.7°
Maximum altitude 18:26:53 32° 107° (ESE) 1,500 6.9 49.5°
Drops below altitude 10° 18:32:07 10° 47° (NE) 2,574 7.5 49.2°
Sets 18:34:52 0° 38° (NE) 3,506 8.0 49.0°
